�������l�o���
Date,Time,MP-1(��Sv/h),MP-2(��Sv/h),MP-3(��Sv/h),MP-4(��Sv/h),MP-5(��Sv/h),MP-6(��Sv/h),MP-7(��Sv/h),MP-8(��Sv/h),����,����(m/s),���J
2017/06/29,00:00,1.009,1.617,1.071,1.914,1.318,0.533,0.978,0.900,�k��,0.9,��
2017/06/29,00:10,1.008,1.615,1.069,1.913,1.317,0.533,0.977,0.900,�k,1.7,��
2017/06/29,00:20,1.009,1.613,1.071,1.914,1.317,0.532,0.976,0.900,�k�k��,1.4,��
2017/06/29,00:30,1.008,1.614,1.071,1.915,1.317,0.533,0.976,0.900,�k�k��,1.5,��
2017/06/29,00:40,1.008,1.614,1.072,1.913,1.317,0.534,0.978,0.902,�k�k��,1.7,��
2017/06/29,00:50,1.008,1.613,1.070,1.915,1.316,0.534,0.978,0.901,�k,2.2,��
2017/06/29,01:00,1.008,1.613,1.069,1.914,1.319,0.534,0.978,0.901,�k�k��,1.9,��
2017/06/29,01:10,1.009,1.615,1.071,1.914,1.317,0.535,0.977,0.900,�k�k��,2.2,��
2017/06/29,01:20,1.004,1.613,1.067,1.914,1.318,0.534,0.977,0.900,�k�k��,2.3,��
2017/06/29,01:30,1.007,1.613,1.068,1.912,1.317,0.531,0.976,0.901,�k�k��,2.8,��
2017/06/29,01:40,1.007,1.614,1.069,1.913,1.317,0.530,0.978,0.899,�k�k��,2.8,��
2017/06/29,01:50,1.008,1.613,1.068,1.913,1.318,0.531,0.976,0.901,�k�k��,2.8,��
2017/06/29,02:00,1.006,1.613,1.069,1.912,1.319,0.532,0.976,0.899,�k�k��,1.4,��
2017/06/29,02:10,1.005,1.613,1.069,1.912,1.317,0.532,0.975,0.901,�k,1.2,��
2017/06/29,02:20,1.006,1.613,1.073,1.913,1.314,0.531,0.975,0.900,�k�k��,0.9,��
2017/06/29,02:30,1.005,1.614,1.068,1.911,1.317,0.532,0.977,0.900,�k�k��,0.9,��
2017/06/29,02:40,1.005,1.610,1.070,1.911,1.316,0.530,0.976,0.898,�k,1.2,��
2017/06/29,02:50,1.005,1.611,1.069,1.913,1.318,0.532,0.974,0.900,�k,1.2,��
2017/06/29,03:00,1.007,1.617,1.069,1.913,1.318,0.532,0.976,0.899,�k,0.9,��
2017/06/29,03:10,1.005,1.613,1.069,1.912,1.315,0.530,0.974,0.899,�k��,1.1,��
2017/06/29,03:20,1.004,1.612,1.068,1.909,1.314,0.531,0.976,0.899,�k�k��,1.2,��
2017/06/29,03:30,1.004,1.613,1.069,1.913,1.315,0.531,0.976,0.901,�k��,0.8,��
2017/06/29,03:40,1.005,1.615,1.069,1.909,1.317,0.529,0.977,0.899,���k��,0.9,��
2017/06/29,03:50,1.002,1.614,1.068,1.912,1.314,0.531,0.973,0.900,��,0.6,��
2017/06/29,04:00,1.003,1.611,1.069,1.911,1.316,0.531,0.973,0.901,���쓌,0.6,��
2017/06/29,04:10,1.006,1.614,1.068,1.913,1.316,0.530,0.972,0.899,�k,0.9,��
2017/06/29,04:20,1.007,1.614,1.069,1.912,1.314,0.532,0.973,0.898,��,0.8,��
2017/06/29,04:30,1.006,1.612,1.067,1.911,1.315,0.529,0.973,0.901,��쓌,0.9,��
2017/06/29,04:40,1.006,1.612,1.069,1.910,1.316,0.531,0.974,0.901,�쐼,1.2,��
2017/06/29,04:50,1.004,1.611,1.065,1.910,1.316,0.531,0.974,0.900,-,CALM,��
2017/06/29,05:00,1.004,1.611,1.068,1.912,1.314,0.531,0.972,0.900,���쓌,0.6,��
2017/06/29,05:10,1.004,1.612,1.068,1.913,1.315,0.531,0.975,0.900,��쐼,1.2,��
2017/06/29,05:20,1.005,1.611,1.068,1.911,1.317,0.531,0.975,0.899,��,1.1,��
2017/06/29,05:30,1.005,1.613,1.069,1.913,1.315,0.531,0.973,0.900,-,CALM,��
2017/06/29,05:40,1.003,1.613,1.068,1.914,1.316,0.530,0.974,0.900,-,CALM,��
2017/06/29,05:50,1.005,1.613,1.068,1.910,1.316,0.531,0.974,0.899,�쓌,0.9,��
2017/06/29,06:00,1.002,1.611,1.068,1.913,1.318,0.531,0.972,0.900,-,CALM,�L
2017/06/29,06:10,1.006,1.611,1.069,1.911,1.317,0.530,0.975,0.900,���쓌,0.9,��
2017/06/29,06:20,1.005,1.611,1.068,1.914,1.315,0.531,0.974,0.899,-,CALM,��
2017/06/29,06:30,1.006,1.614,1.067,1.914,1.316,0.530,0.974,0.901,-,CALM,��
2017/06/29,06:40,1.006,1.615,1.067,1.909,1.315,0.529,0.975,0.899,��,1.1,��
2017/06/29,06:50,1.005,1.613,1.069,1.910,1.318,0.528,0.972,0.899,��쐼,0.9,��
2017/06/29,07:00,1.005,1.612,1.068,1.913,1.316,0.529,0.973,0.899,��,1.2,��
2017/06/29,07:10,1.006,1.614,1.069,1.912,1.317,0.531,0.971,0.898,-,CALM,��
2017/06/29,07:20,1.003,1.615,1.067,1.911,1.317,0.529,0.976,0.898,��,0.6,��
2017/06/29,07:30,1.003,1.613,1.068,1.912,1.315,0.530,0.973,0.897,�쓌,1.5,��
2017/06/29,07:40,1.003,1.610,1.067,1.909,1.313,0.527,0.972,0.897,��,1.1,��
2017/06/29,07:50,1.003,1.610,1.068,1.913,1.314,0.528,0.975,0.897,���쓌,1.4,��
2017/06/29,08:00,1.003,1.609,1.067,1.913,1.312,0.528,0.972,0.899,���쓌,1.1,��
2017/06/29,08:10,1.003,1.610,1.070,1.915,1.313,0.529,0.973,0.897,�쓌,1.2,��
2017/06/29,08:20,1.002,1.611,1.067,1.911,1.311,0.528,0.971,0.897,�쓌,1.1,��
2017/06/29,08:30,1.002,1.611,1.071,1.911,1.312,0.528,0.974,0.898,�쓌,1.4,��
2017/06/29,08:40,1.005,1.612,1.069,1.912,1.313,0.528,0.971,0.897,�쓌,1.4,��
2017/06/29,08:50,1.005,1.611,1.068,1.913,1.312,0.528,0.973,0.897,�쓌,1.5,��
2017/06/29,09:00,1.001,1.608,1.064,1.913,1.314,0.527,0.974,0.899,�쓌,1.2,��
2017/06/29,09:10,1.004,1.612,1.066,1.914,1.314,0.527,0.974,0.898,��,1.2,��
2017/06/29,09:20,1.003,1.608,1.067,1.914,1.315,0.528,0.974,0.897,��쓌,1.7,��
2017/06/29,09:30,1.004,1.609,1.067,1.914,1.317,0.527,0.976,0.897,��쓌,1.4,��
2017/06/29,09:40,1.005,1.610,1.067,1.914,1.316,0.529,0.975,0.898,��쓌,1.5,��
2017/06/29,09:50,1.005,1.610,1.069,1.913,1.316,0.529,0.976,0.897,�쓌,2.2,��
2017/06/29,10:00,1.006,1.612,1.066,1.914,1.317,0.529,0.977,0.897,�쓌,2.3,��
2017/06/29,10:10,1.006,1.612,1.067,1.914,1.319,0.528,0.975,0.898,���쓌,2.0,��
2017/06/29,10:20,1.007,1.612,1.068,1.915,1.317,0.529,0.975,0.897,�쓌,2.2,��
2017/06/29,10:30,1.008,1.613,1.070,1.915,1.320,0.530,0.973,0.898,���쓌,2.5,��
2017/06/29,10:40,1.005,1.614,1.068,1.915,1.319,0.528,0.977,0.897,���쓌,2.9,��
2017/06/29,10:50,1.006,1.614,1.068,1.915,1.318,0.529,0.976,0.899,���쓌,3.0,��
2017/06/29,11:00,1.006,1.613,1.069,1.911,1.319,0.529,0.973,0.898,���쓌,2.9,��
2017/06/29,11:10,1.008,1.614,1.071,1.912,1.318,0.530,0.976,0.897,�쓌,2.9,��
2017/06/29,11:20,1.005,1.616,1.070,1.915,1.319,0.531,0.974,0.897,�쓌,3.6,��
2017/06/29,11:30,1.004,1.616,1.071,1.916,1.317,0.530,0.976,0.897,�쓌,3.0,��
2017/06/29,11:40,1.007,1.613,1.070,1.909,1.321,0.529,0.974,0.899,�쓌,2.6,��
2017/06/29,11:50,1.006,1.614,1.070,1.912,1.323,0.531,0.974,0.898,�쓌,2.9,��
2017/06/29,12:00,1.008,1.615,1.069,1.915,1.321,0.529,0.977,0.899,���쓌,3.6,��
2017/06/29,12:10,1.008,1.616,1.071,1.913,1.323,0.530,0.976,0.899,�쓌,3.1,��
2017/06/29,12:20,1.008,1.617,1.074,1.912,1.321,0.530,0.977,0.897,�쓌,3.2,��
2017/06/29,12:30,1.009,1.616,1.072,1.911,1.322,0.531,0.975,0.898,�쓌,3.3,��
2017/06/29,12:40,1.008,1.613,1.072,1.915,1.322,0.530,0.974,0.898,�쓌,3.3,��
2017/06/29,12:50,1.008,1.616,1.071,1.917,1.322,0.529,0.975,0.898,�쓌,2.3,��
2017/06/29,13:00,1.008,1.617,1.072,1.914,1.320,0.531,0.977,0.898,���쓌,2.0,��
2017/06/29,13:10,1.009,1.616,1.072,1.916,1.325,0.531,0.975,0.897,�쓌,3.1,��
2017/06/29,13:20,1.005,1.617,1.071,1.915,1.322,0.531,0.976,0.900,�쓌,3.5,��
2017/06/29,13:30,1.009,1.615,1.070,1.916,1.323,0.530,0.975,0.898,���쓌,2.0,��
2017/06/29,13:40,1.007,1.617,1.071,1.917,1.324,0.530,0.977,0.898,��,2.5,��
2017/06/29,13:50,1.011,1.619,1.070,1.917,1.325,0.531,0.974,0.898,�쓌,2.8,��
2017/06/29,14:00,1.010,1.619,1.070,1.917,1.322,0.533,0.977,0.900,�쓌,3.2,��
2017/06/29,14:10,1.009,1.617,1.070,1.918,1.322,0.533,0.975,0.898,��쓌,3.6,��
2017/06/29,14:20,1.008,1.617,1.070,1.918,1.326,0.531,0.975,0.898,��쓌,4.0,��
2017/06/29,14:30,1.011,1.618,1.075,1.918,1.325,0.532,0.977,0.898,��쓌,4.0,��
2017/06/29,14:40,1.009,1.616,1.073,1.913,1.325,0.531,0.976,0.899,��쓌,3.8,��
2017/06/29,14:50,1.008,1.620,1.073,1.917,1.327,0.532,0.978,0.898,��쓌,3.5,��
2017/06/29,15:00,1.010,1.617,1.074,1.913,1.326,0.532,0.976,0.898,��쓌,4.5,��
2017/06/29,15:10,1.009,1.618,1.072,1.915,1.322,0.533,0.975,0.898,��쓌,4.4,��
2017/06/29,15:20,1.010,1.619,1.073,1.915,1.323,0.532,0.975,0.897,��쓌,5.2,��
2017/06/29,15:30,1.009,1.617,1.072,1.912,1.324,0.533,0.976,0.897,��쓌,5.3,��
2017/06/29,15:40,1.008,1.618,1.072,1.913,1.325,0.531,0.974,0.899,��쓌,4.8,��
2017/06/29,15:50,1.009,1.621,1.072,1.916,1.325,0.532,0.975,0.900,��쓌,4.6,��
2017/06/29,16:00,1.010,1.619,1.072,1.917,1.324,0.533,0.977,0.899,��쓌,4.6,��
2017/06/29,16:10,1.009,1.620,1.073,1.915,1.324,0.534,0.975,0.898,��쓌,4.1,��
2017/06/29,16:20,1.009,1.619,1.069,1.915,1.326,0.533,0.973,0.899,��쓌,4.0,��
2017/06/29,16:30,1.009,1.618,1.067,1.922,1.325,0.533,0.975,0.899,��쓌,4.2,��
2017/06/29,16:40,1.006,1.620,1.071,1.919,1.325,0.533,0.974,0.898,��쓌,4.7,��
2017/06/29,16:50,1.008,1.621,1.071,1.920,1.325,0.533,0.973,0.898,��쓌,4.8,��
2017/06/29,17:00,1.006,1.617,1.070,1.920,1.324,0.532,0.976,0.897,��쓌,4.4,��
2017/06/29,17:10,1.008,1.620,1.073,1.918,1.323,0.532,0.976,0.898,��쓌,4.1,��
2017/06/29,17:20,1.007,1.622,1.070,1.920,1.325,0.534,0.975,0.899,��,3.4,��
2017/06/29,17:30,1.008,1.619,1.073,1.919,1.324,0.533,0.977,0.898,��,3.9,��
2017/06/29,17:40,1.008,1.619,1.073,1.921,1.324,0.532,0.976,0.897,��,4.0,��
2017/06/29,17:50,1.008,1.619,1.071,1.921,1.324,0.533,0.974,0.898,��쓌,4.5,��
2017/06/29,18:00,1.008,1.618,1.074,1.919,1.322,0.532,0.974,0.898,��쓌,5.0,��
2017/06/29,18:10,1.008,1.620,1.072,1.920,1.325,0.534,0.977,0.899,��쓌,5.6,��
2017/06/29,18:20,1.008,1.622,1.072,1.919,1.325,0.533,0.974,0.899,��,5.7,��
2017/06/29,18:30,1.006,1.619,1.072,1.918,1.323,0.532,0.976,0.898,��,4.7,��
2017/06/29,18:40,1.008,1.620,1.072,1.920,1.322,0.532,0.975,0.898,��,3.8,��
2017/06/29,18:50,1.008,1.622,1.073,1.918,1.322,0.534,0.975,0.899,��,3.2,��
2017/06/29,19:00,1.009,1.625,1.073,1.916,1.323,0.534,0.975,0.900,��,4.4,��
2017/06/29,19:10,1.010,1.622,1.075,1.922,1.321,0.535,0.975,0.902,��,3.5,��
2017/06/29,19:20,1.009,1.620,1.075,1.919,1.323,0.535,0.977,0.901,��쐼,2.0,��
2017/06/29,19:30,1.010,1.622,1.075,1.919,1.326,0.533,0.975,0.901,��,2.3,��
2017/06/29,19:40,1.008,1.624,1.076,1.917,1.325,0.533,0.976,0.902,��,2.3,��
2017/06/29,19:50,1.011,1.622,1.076,1.919,1.323,0.535,0.976,0.900,��쐼,1.9,��
2017/06/29,20:00,1.007,1.627,1.075,1.918,1.328,0.536,0.976,0.900,��,1.4,��
2017/06/29,20:10,1.009,1.623,1.076,1.921,1.325,0.535,0.974,0.900,-,CALM,��
2017/06/29,20:20,1.009,1.622,1.076,1.920,1.326,0.535,0.975,0.900,-,CALM,��
2017/06/29,20:30,1.007,1.622,1.072,1.919,1.326,0.535,0.975,0.902,-,CALM,��
2017/06/29,20:40,1.009,1.622,1.075,1.915,1.327,0.535,0.974,0.900,��,0.8,��
2017/06/29,20:50,1.008,1.623,1.074,1.921,1.327,0.536,0.977,0.901,�k��,0.9,��
2017/06/29,21:00,1.011,1.624,1.074,1.919,1.324,0.536,0.976,0.901,�k��,1.2,��
2017/06/29,21:10,1.011,1.622,1.075,1.919,1.324,0.535,0.976,0.902,�k��,1.5,��
2017/06/29,21:20,1.009,1.622,1.074,1.918,1.326,0.535,0.977,0.900,�k��,3.1,��
2017/06/29,21:30,1.010,1.622,1.074,1.919,1.326,0.536,0.977,0.901,�k�k��,3.2,��
2017/06/29,21:40,1.008,1.623,1.078,1.918,1.327,0.537,0.977,0.900,�k�k��,3.0,��
2017/06/29,21:50,1.008,1.621,1.075,1.921,1.326,0.534,0.977,0.901,�k�k��,2.8,��
2017/06/29,22:00,1.011,1.621,1.073,1.917,1.326,0.534,0.978,0.901,�k�k��,3.0,��
2017/06/29,22:10,1.009,1.622,1.074,1.919,1.328,0.534,0.976,0.901,�k�k��,3.1,��
2017/06/29,22:20,1.009,1.620,1.076,1.918,1.323,0.535,0.977,0.900,�k�k��,3.0,��
2017/06/29,22:30,1.009,1.620,1.075,1.917,1.328,0.535,0.977,0.901,�k�k��,3.2,��
2017/06/29,22:40,1.012,1.623,1.074,1.919,1.327,0.533,0.977,0.903,�k,2.3,��
2017/06/29,22:50,1.009,1.622,1.076,1.917,1.324,0.536,0.976,0.902,�k,1.9,��
2017/06/29,23:00,1.011,1.623,1.075,1.919,1.327,0.536,0.978,0.902,�k�k��,2.5,��
2017/06/29,23:10,1.011,1.619,1.074,1.918,1.327,0.535,0.976,0.901,�k�k��,1.4,��
2017/06/29,23:20,1.010,1.620,1.077,1.919,1.327,0.534,0.979,0.902,�k�k��,1.5,��
2017/06/29,23:30,1.010,1.619,1.075,1.916,1.326,0.533,0.977,0.902,�k�k��,1.7,��
2017/06/29,23:40,1.010,1.619,1.073,1.919,1.326,0.533,0.977,0.901,�k�k��,1.4,��
2017/06/29,23:50,1.009,1.621,1.074,1.917,1.329,0.533,0.977,0.900,�k�k��,2.0,��
